Temp
-7 -7 -7 -7 -7 -7 -7 -7 -7 -7 -7 -7 -7 -7 -7 -7 -7 -8 -8 -8 -7 -8 -8 -8 -8 -9 -8 -8 -8 -8 -8 -8 -8 -7 -7 -7 -6 -7 -5 -6 -6 -7 -7
-7 -8 -8 -7 -7 -7 -7 -7 -7 -7 -7 -7 -7 -8 -8 -8 -8 -8 -8 -8 -8 -8 -8 -8 -8 -8 -8 -8 -8 -8 -8 -8 -8 -8 -8 -8 -7 -8 -7 -7 -7 -8 -7
-7 -8 -8 -8 -7 -7 -7 -7 -7 -7 -7 -8 -8 -9 -8 -8 -8 -9 -9 -8 -9 -8 -8 -9 -8 -8 -8 -8 -8 -8 -8 -8 -8 -8 -8 -8 -8 -8 -8 -7 -7 -6 -3
-8 -8 -8 -8 -7 -7 -7 -8 -8 -8 -8 -8 -9 -9 -9 -9 -9 -9 -9 -9 -9 -9 -9 -9 -9 -8 -8 -8 -7 -8 -8 -8 -8 -9 -8 -8 -8 -8 -8 -7 -7 -7 -6
-8 -8 -8 -8 -8 -8 -8 -8 -9 -9 -9 -9 -9 -9 -9 -9 -9 -9 -9 -9 -9 -9 -10 -9 -8 -8 -8 -9 -9 -8 -8 -8 -8 -9 -9 -8 -8 -8 -7 -7 -7 -7 -7
-8 -8 -8 -8 -8 -8 -8 -9 -10 -10 -10 -10 -10 -10 -10 -10 -10 -10 -10 -9 -10 -11 -10 -10 -9 -9 -9 -8 -8 -8 -9 -8 -8 -8 -9 -8 -8 -8 -8 -7 -7 -7 -7
-8 -8 -8 -8 -9 -9 -9 -10 -10 -11 -10 -10 -10 -10 -10 -10 -10 -10 -10 -10 -11 -9 -9 -9 -9 -9 -9 -9 -8 -8 -8 -8 -8 -9 -9 -8 -9 -9 -8 -8 -8 -7 -7
-8 -8 -9 -9 -10 -10 -11 -11 -11 -11 -11 -11 -11 -11 -11 -10 -10 -10 -10 -10 -11 -10 -9 -9 -10 -10 -10 -9 -8 -9 -8 -8 -8 -9 -9 -9 -10 -10 -9 -8 -8 -7 -7
-8 -9 -9 -10 -11 -11 -11 -12 -11 -11 -11 -11 -11 -11 -11 -11 -11 -11 -11 -9 -10 -10 -9 -9 -10 -10 -10 -9 -9 -9 -10 -9 -9 -10 -10 -10 -10 -9 -8 -8 -8 -7 -7
-9 -10 -10 -11 -11 -12 -12 -12 -12 -12 -12 -12 -12 -11 -11 -11 -11 -11 -11 -9 -9 -10 -9 -9 -10 -10 -10 -10 -10 -10 -10 -10 -10 -10 -10 -9 -9 -9 -9 -9 -9 -8 -8
-10 -11 -11 -12 -12 -12 -12 -12 -12 -12 -13 -12 -12 -11 -11 -11 -11 -12 -11 -10 -10 -10 -9 -9 -10 -10 -10 -10 -11 -11 -10 -10 -10 -10 -10 -10 -10 -10 -9 -9 -8 -8 -8
-11 -11 -12 -12 -12 -12 -12 -12 -12 -12 -12 -12 -12 -12 -11 -11 -11 -12 -11 -12 -11 -10 -9 -9 -10 -10 -10 -10 -10 -11 -11 -10 -10 -10 -10 -10 -10 -9 -9 -9 -9 -8 -8
-12 -12 -12 -13 -13 -13 -13 -13 -12 -12 -13 -12 -12 -12 -12 -12 -12 -12 -12 -12 -11 -10 -9 -10 -9 -10 -10 -10 -10 -10 -10 -10 -10 -10 -10 -10 -10 -10 -10 -9 -9 -9 -8
-12 -13 -13 -14 -14 -14 -15 -14 -13 -13 -13 -13 -12 -12 -12 -13 -13 -13 -12 -12 -11 -11 -11 -10 -9 -10 -10 -10 -10 -10 -10 -10 -10 -10 -10 -10 -10 -9 -9 -9 -9 -9 -8
-12 -13 -13 -13 -14 -14 -16 -15 -14 -13 -13 -13 -13 -13 -13 -13 -14 -13 -14 -12 -12 -12 -12 -11 -10 -10 -10 -10 -10 -10 -10 -10 -10 -10 -10 -10 -9 -9 -9 -9 -9 -9 -9
-12 -12 -13 -13 -14 -14 -13 -13 -13 -13 -13 -14 -14 -14 -13 -15 -15 -15 -15 -13 -13 -13 -13 -12 -11 -11 -10 -10 -10 -10 -10 -10 -10 -10 -10 -10 -9 -9 -10 -9 -9 -9 -10
-12 -12 -14 -14 -16 -15 -15 -14 -13 -13 -13 -15 -15 -14 -14 -15 -15 -15 -16 -16 -15 -14 -14 -15 -15 -15 -14 -14 -13 -12 -11 -11 -11 -11 -10 -10 -10 -10 -10 -10 -9 -9 -9
-13 -13 -14 -14 -16 -16 -16 -16 -15 -14 -14 -14 -15 -15 -15 -15 -15 -15 -15 -16 -16 -16 -16 -16 -15 -14 -14 -13 -13 -12 -12 -12 -11 -11 -11 -11 -11 -11 -10 -10 -10 -10 -9
-14 -15 -15 -16 -16 -16 -15 -15 -15 -15 -14 -14 -15 -15 -15 -15 -15 -15 -15 -15 -16 -16 -16 -16 -15 -14 -13 -14 -13 -13 -12 -12 -12 -12 -11 -11 -11 -11 -11 -12 -11 -11 -11
-14 -15 -15 -16 -16 -16 -15 -16 -15 -15 -15 -15 -15 -15 -15 -15 -15 -15 -14 -15 -14 -15 -15 -15 -15 -14 -14 -14 -14 -13 -12 -12 -12 -12 -12 -12 -11 -11 -11 -11 -11 -11 -11
-14 -15 -15 -15 -15 -15 -15 -14 -14 -15 -15 -15 -15 -15 -16 -15 -15 -15 -14 -14 -14 -14 -14 -14 -14 -13 -13 -13 -12 -13 -12 -12 -12 -12 -12 -12 -12 -12 -12 -11 -11 -12 -12
-14 -14 -15 -15 -15 -15 -15 -15 -14 -15 -15 -15 -15 -15 -15 -15 -15 -14 -14 -14 -14 -14 -14 -14 -13 -13 -13 -13 -13 -13 -13 -13 -12 -12 -12 -12 -12 -13 -13 -13 -13 -12 -12
-14 -14 -14 -14 -15 -14 -13 -14 -15 -15 -15 -15 -15 -15 -15 -15 -15 -14 -14 -14 -14 -14 -14 -14 -14 -13 -14 -13 -13 -13 -13 -13 -13 -13 -13 -13 -13 -14 -14 -14 -14 -14 -14
-13 -14 -14 -14 -15 -14 -14 -14 -14 -15 -14 -15 -15 -15 -15 -15 -15 -14 -14 -14 -14 -14 -14 -14 -14 -14 -14 -14 -14 -13 -14 -14 -14 -14 -14 -15 -15 -15 -15 -15 -15 -15 -15
-14 -14 -14 -13 -13 -14 -14 -14 -15 -15 -15 -15 -15 -15 -15 -15 -15 -15 -15 -15 -15 -15 -15 -15 -15 -15 -14 -14 -14 -14 -15 -15 -15 -15 -15 -15 -15 -15 -15 -15 -15 -15 -15
-14 -13 -13 -14 -13 -13 -14 -15 -15 -15 -15 -15 -15 -16 -16 -15 -15 -15 -15 -15 -15 -15 -15 -15 -15 -15 -16 -15 -16 -16 -16 -15 -16 -16 -16 -16 -16 -15 -15 -15 -15 -15 -15
Height
5903 5902 5898 5896 5892 5889 5885 5881 5876 5872 5868 5863 5858 5852 5847 5842 5837 5833 5829 5825 5821 5818 5815 5812 5813 5811 5811 5810 5809 5807 5803 5805 5805 5815 5817 5823 5817 5822 5833 5834 5838 5837 5844
5896 5894 5890 5887 5884 5880 5876 5872 5867 5862 5857 5852 5846 5840 5835 5829 5824 5820 5815 5811 5806 5803 5799 5794 5794 5793 5792 5793 5792 5792 5791 5792 5792 5800 5802 5808 5813 5816 5817 5820 5820 5823 5832
5889 5886 5883 5879 5875 5871 5867 5862 5857 5852 5845 5839 5834 5827 5822 5816 5810 5804 5800 5795 5790 5785 5780 5774 5771 5770 5772 5771 5771 5772 5774 5776 5777 5783 5793 5796 5802 5799 5801 5804 5811 5810 5796
5881 5878 5874 5870 5867 5862 5857 5852 5847 5841 5835 5828 5822 5817 5810 5802 5795 5789 5782 5776 5771 5764 5758 5752 5750 5748 5747 5747 5748 5752 5754 5756 5760 5765 5776 5782 5788 5796 5798 5797 5804 5805 5800
5872 5868 5864 5860 5857 5853 5847 5842 5837 5831 5824 5818 5812 5805 5799 5792 5783 5773 5764 5756 5749 5742 5735 5728 5725 5724 5724 5725 5726 5730 5733 5736 5742 5751 5759 5766 5774 5782 5786 5790 5790 5793 5797
5863 5859 5855 5850 5846 5842 5837 5831 5825 5820 5813 5808 5800 5794 5787 5779 5769 5760 5748 5739 5730 5719 5711 5709 5705 5706 5706 5706 5707 5709 5715 5720 5725 5735 5747 5751 5760 5766 5771 5779 5784 5784 5788
5853 5848 5844 5839 5835 5831 5827 5820 5815 5809 5802 5796 5790 5784 5776 5768 5758 5746 5734 5724 5714 5700 5695 5694 5692 5690 5689 5690 5691 5692 5699 5707 5714 5722 5732 5741 5747 5753 5760 5766 5770 5773 5783
5842 5837 5832 5827 5823 5819 5815 5810 5804 5798 5792 5786 5780 5774 5766 5757 5744 5732 5718 5710 5699 5690 5685 5682 5680 5677 5677 5678 5679 5681 5687 5696 5706 5714 5722 5730 5736 5739 5749 5751 5757 5767 5777
5830 5825 5820 5815 5811 5808 5804 5799 5794 5788 5782 5776 5771 5764 5756 5746 5733 5720 5708 5695 5691 5684 5680 5675 5670 5668 5669 5670 5671 5673 5681 5690 5698 5706 5713 5719 5724 5730 5738 5743 5750 5755 5765
5817 5812 5808 5804 5799 5796 5792 5787 5783 5779 5774 5767 5762 5755 5747 5736 5725 5713 5700 5689 5685 5680 5674 5669 5666 5663 5664 5664 5666 5670 5676 5684 5689 5695 5702 5710 5717 5723 5727 5733 5740 5745 5751
5803 5799 5796 5791 5788 5785 5780 5777 5774 5770 5765 5758 5754 5745 5739 5728 5719 5706 5696 5684 5680 5676 5670 5668 5664 5661 5661 5662 5665 5668 5671 5676 5682 5689 5696 5704 5710 5714 5719 5724 5730 5736 5741
5790 5786 5783 5780 5776 5775 5773 5769 5766 5763 5757 5750 5745 5737 5730 5721 5712 5703 5692 5684 5677 5672 5666 5664 5663 5662 5661 5663 5665 5666 5670 5673 5679 5684 5690 5695 5701 5706 5712 5717 5722 5726 5731
5777 5773 5769 5766 5765 5764 5764 5761 5758 5753 5747 5743 5737 5730 5722 5715 5707 5699 5690 5686 5679 5670 5665 5663 5664 5662 5661 5662 5664 5666 5669 5673 5677 5681 5686 5691 5696 5701 5706 5710 5713 5716 5719
5763 5759 5752 5751 5748 5751 5751 5751 5749 5745 5738 5734 5730 5722 5716 5711 5704 5695 5688 5685 5677 5670 5664 5661 5660 5660 5661 5662 5663 5665 5668 5671 5674 5678 5682 5687 5691 5694 5698 5701 5704 5706 5709
5749 5740 5744 5742 5743 5738 5738 5741 5742 5735 5731 5727 5724 5715 5712 5707 5701 5694 5687 5681 5678 5669 5664 5662 5660 5659 5660 5662 5663 5665 5667 5669 5672 5675 5678 5682 5685 5687 5690 5692 5694 5696 5699
5742 5739 5735 5728 5732 5738 5734 5736 5730 5725 5726 5719 5718 5710 5708 5705 5701 5692 5687 5680 5675 5672 5666 5661 5660 5658 5660 5660 5662 5663 5665 5667 5670 5671 5674 5676 5678 5680 5682 5684 5686 5688 5689
5734 5735 5729 5725 5726 5724 5725 5725 5722 5720 5718 5716 5710 5705 5705 5704 5700 5694 5689 5683 5676 5671 5669 5666 5664 5665 5664 5665 5667 5668 5668 5667 5667 5669 5672 5673 5673 5674 5675 5678 5680 5681 5684
5725 5721 5719 5715 5712 5714 5715 5713 5714 5713 5711 5710 5706 5701 5703 5702 5699 5695 5691 5686 5682 5678 5674 5670 5671 5671 5671 5669 5672 5672 5672 5672 5671 5671 5671 5672 5672 5672 5672 5672 5672 5675 5675
5709 5706 5704 5703 5703 5705 5703 5704 5705 5706 5704 5691 5701 5699 5701 5700 5698 5694 5691 5688 5685 5681 5678 5675 5673 5673 5672 5672 5673 5674 5674 5673 5673 5673 5673 5673 5672 5671 5670 5669 5670 5670 5670
5701 5698 5699 5699 5697 5701 5700 5698 5700 5700 5699 5699 5697 5696 5697 5697 5696 5693 5690 5688 5686 5682 5680 5677 5676 5675 5674 5673 5673 5674 5672 5672 5672 5671 5671 5671 5670 5669 5669 5669 5669 5668 5668
5693 5696 5696 5697 5694 5691 5692 5695 5694 5685 5691 5692 5693 5693 5693 5693 5692 5690 5689 5686 5684 5682 5680 5678 5677 5676 5675 5674 5673 5672 5671 5670 5670 5669 5668 5667 5666 5665 5664 5662 5662 5662 5661
5692 5692 5692 5693 5691 5686 5689 5693 5685 5690 5689 5689 5689 5689 5690 5689 5688 5687 5685 5683 5681 5679 5678 5677 5676 5675 5674 5672 5671 5670 5669 5667 5666 5664 5663 5662 5660 5659 5658 5656 5655 5654 5652
5682 5681 5684 5686 5682 5682 5686 5689 5687 5686 5687 5686 5685 5686 5685 5685 5684 5683 5681 5680 5679 5677 5676 5675 5673 5672 5672 5669 5668 5666 5664 5662 5660 5658 5657 5655 5653 5651 5650 5648 5646 5645 5644
5675 5676 5676 5676 5675 5680 5682 5682 5683 5683 5683 5682 5681 5680 5680 5680 5679 5678 5677 5676 5674 5673 5672 5671 5670 5667 5666 5663 5661 5659 5658 5656 5654 5652 5650 5649 5647 5646 5644 5642 5639 5637 5636
5672 5671 5669 5667 5673 5679 5680 5680 5679 5679 5678 5677 5676 5675 5675 5674 5673 5672 5671 5670 5669 5668 5667 5666 5664 5660 5658 5657 5654 5653 5651 5650 5649 5647 5645 5643 5640 5638 5636 5634 5632 5629 5626
5669 5670 5670 5670 5671 5674 5675 5675 5674 5673 5672 5671 5669 5668 5669 5669 5667 5666 5665 5663 5662 5661 5659 5658 5656 5654 5651 5649 5649 5647 5646 5644 5643 5641 5639 5636 5634 5631 5628 5625 5622 5618 5614
Wind_Speed
34 34 37 39 39 39 41 43 44 46 48 49 52 54 55 56 56 56 55 53 55 51 52 54 52 51 52 52 52 54 55 50 51 42 43 47 47 38 34 36 34 35 33
38 38 40 41 42 43 45 46 49 51 52 53 55 56 56 58 59 58 55 51 54 56 57 58 55 55 57 58 58 58 59 56 55 46 43 43 46 43 42 36 44 25 35
41 42 42 43 45 48 49 50 53 54 56 56 57 56 57 57 55 53 54 57 57 57 59 60 60 58 55 58 59 61 63 63 62 57 47 43 41 40 42 45 52 34 34
42 43 45 46 48 49 51 54 55 56 55 56 55 55 55 54 54 57 59 63 62 61 60 61 60 62 60 60 61 62 62 62 64 61 53 44 43 41 44 44 50 39 51
42 44 46 49 51 52 54 56 55 54 54 56 54 53 51 54 57 62 66 66 64 64 64 67 64 58 52 53 54 55 58 63 63 59 54 49 41 44 44 38 47 43 39
46 48 50 53 55 56 56 54 53 51 53 53 52 49 52 55 59 63 67 65 53 53 58 52 41 45 48 47 46 46 50 51 53 54 50 51 44 44 45 43 41 41 37
48 51 53 55 57 57 53 52 51 51 52 51 50 51 54 56 62 62 64 59 55 54 49 42 36 38 44 46 41 43 44 48 49 47 46 47 45 43 44 44 47 45 38
50 53 55 57 58 56 52 51 50 51 52 51 49 51 55 58 61 62 60 58 38 44 35 31 32 35 30 33 34 33 39 42 42 42 41 42 45 46 45 47 48 42 35
52 54 56 57 56 53 51 49 49 50 50 51 49 52 55 58 60 60 55 55 30 32 27 28 29 25 23 25 24 26 34 35 37 37 41 43 44 41 44 47 45 45 38
53 53 54 54 53 51 49 49 48 49 49 49 49 51 52 57 59 53 53 48 39 29 30 33 18 14 15 14 15 19 26 30 35 35 39 42 41 39 45 48 45 44 41
52 53 53 52 51 49 50 49 48 48 47 48 48 50 52 54 57 47 49 44 38 25 24 16 13 12 10 11 11 14 20 25 27 26 29 34 37 40 43 46 45 44 42
53 53 53 52 52 50 49 48 48 47 47 47 44 49 52 52 51 39 44 39 40 28 15 11 9 9 8 10 10 14 13 17 21 24 27 31 35 37 39 41 42 42 41
52 54 56 56 55 53 50 45 46 42 41 43 43 47 49 48 41 35 32 23 19 13 14 7 5 8 6 7 11 12 15 18 20 21 21 22 26 29 31 34 37 38 39
59 56 57 56 52 51 50 43 39 42 36 34 39 43 44 44 36 30 24 18 2 7 8 15 14 8 10 5 7 11 13 15 19 20 21 22 25 28 29 30 32 34 34
67 57 23 17 40 33 36 38 33 31 31 30 35 36 41 34 29 25 24 16 6 5 8 1 12 8 8 9 10 10 10 10 11 14 16 19 21 24 26 28 29 31 31
43 40 53 41 34 33 25 29 29 25 28 27 28 30 32 23 23 29 28 16 1 6 8 14 12 14 11 10 10 7 13 17 17 20 19 17 17 20 24 28 26 28 28
52 49 53 49 40 33 25 28 29 28 26 26 18 20 21 21 18 17 27 26 13 12 15 24 23 21 20 18 15 11 12 10 3 3 10 11 16 20 17 20 23 25 28
54 49 54 56 46 42 31 27 29 27 24 21 16 11 15 18 15 12 13 20 21 19 15 18 18 18 17 16 13 13 11 10 9 9 7 8 13 13 13 13 23 33 36
48 37 42 34 33 28 28 20 24 22 16 10 16 8 13 15 14 11 10 9 18 15 17 17 13 12 14 16 14 13 12 10 8 8 8 7 7 10 13 15 17 15 14
17 25 24 22 25 17 15 30 22 22 11 19 13 10 13 13 11 10 10 9 9 10 11 11 11 11 12 11 12 12 12 11 10 8 9 9 10 11 11 10 10 11 12
9 15 27 14 18 16 18 21 26 14 12 14 13 12 14 19 12 14 15 14 11 7 6 6 6 6 7 8 9 9 10 11 13 14 15 15 16 16 17 19 21 21 20
16 15 13 15 17 16 20 21 14 11 14 14 12 14 12 12 14 15 16 13 9 9 9 8 9 10 13 12 12 13 14 14 16 18 19 20 21 21 21 21 23 24 26
17 14 14 14 10 11 16 20 22 16 20 15 14 15 16 15 14 14 13 11 10 10 11 13 15 16 16 18 17 17 18 19 20 21 21 21 22 22 21 21 22 23 24
18 18 17 18 12 15 18 20 17 18 20 17 16 18 18 16 14 13 12 13 13 13 14 16 17 20 18 19 20 20 21 21 20 19 19 20 21 21 22 24 24 25 26
10 13 17 8 13 15 14 17 18 17 20 21 22 22 20 18 16 15 16 16 17 18 19 20 21 22 22 19 19 19 18 18 19 20 21 23 24 24 25 27 30 33 35
9 12 13 12 9 16 17 19 21 23 23 23 20 15 18 18 18 18 19 21 22 23 23 24 24 21 17 17 16 16 19 21 21 22 24 25 27 30 32 36 40 43 45
Wind_Direction
304 307 305 305 306 306 306 305 302 301 301 300 300 300 300 299 300 301 303 300 297 291 286 283 283 280 276 272 267 267 269 268 271 267 258 254 242 246 241 246 241 237 248
301 302 302 303 303 304 306 304 303 304 304 302 303 303 301 301 303 303 300 296 293 291 289 286 283 279 278 273 268 264 264 265 266 266 265 253 257 232 224 232 243 235 248
302 300 300 300 303 304 305 304 303 304 304 303 304 305 305 306 303 300 299 297 298 295 292 287 285 279 275 271 265 263 262 261 263 263 259 254 246 249 266 248 235 219 219
298 297 298 299 300 301 301 300 302 304 303 304 305 307 307 304 304 304 302 302 300 297 291 285 283 280 274 269 261 259 256 257 257 259 257 252 245 240 241 250 243 237 248
295 295 296 297 298 298 298 299 303 304 304 305 306 308 305 307 308 308 307 303 299 293 288 284 283 278 270 268 265 259 255 252 251 252 252 250 246 238 241 247 240 253 247
294 294 294 294 295 295 296 301 303 304 305 306 308 306 308 310 308 309 307 308 305 297 291 288 281 275 272 269 268 260 249 247 244 246 245 243 244 238 237 237 242 248 242
291 291 291 290 291 293 299 301 302 304 304 308 308 309 309 311 311 309 310 307 310 300 293 290 288 282 273 268 267 256 244 241 239 242 239 238 239 239 235 237 238 240 243
290 289 289 288 290 295 300 299 302 303 305 307 309 311 310 313 314 315 311 317 303 303 301 294 289 279 265 271 265 251 234 236 234 239 238 233 234 237 231 236 239 242 240
289 288 288 288 291 295 298 299 302 304 305 309 310 311 313 317 317 317 315 318 315 315 309 316 296 287 262 272 261 248 232 229 231 238 234 230 233 235 229 234 240 244 241
290 287 287 287 291 294 296 300 301 304 306 308 309 313 317 318 319 317 320 318 331 321 309 321 310 267 268 265 258 234 230 231 233 236 231 226 230 234 232 234 237 242 243
290 289 289 288 290 293 295 299 301 304 306 306 313 313 317 320 321 319 323 314 315 319 317 329 323 280 256 242 240 227 220 225 228 221 222 225 229 231 233 237 240 244 245
291 291 290 289 289 292 294 297 298 302 306 311 315 315 320 322 321 324 320 314 315 317 297 313 356 321 269 257 238 233 213 217 215 220 220 222 225 231 235 239 244 247 248
293 293 292 290 289 291 294 296 297 298 307 313 316 318 322 324 321 325 320 315 301 311 312 333 283 297 319 258 234 223 216 219 226 229 228 226 228 231 234 242 246 249 252
296 296 293 289 279 290 283 287 293 298 309 315 314 319 323 323 321 334 323 302 291 119 116 179 228 240 250 251 209 215 219 223 229 237 238 236 237 238 240 244 248 249 250
303 281 292 300 317 304 284 283 296 300 307 313 313 323 325 322 323 347 344 281 285 66 60 311 214 201 218 239 252 235 237 227 222 236 239 238 239 241 243 243 247 249 250
287 286 300 307 302 308 297 299 306 314 302 308 311 328 327 324 327 340 358 329 144 353 55 108 123 105 126 140 170 154 216 234 239 239 237 241 247 251 254 251 256 253 255
277 282 288 296 299 299 268 298 295 301 305 304 312 331 323 322 324 336 343 12 34 63 54 46 68 71 70 72 74 68 62 61 59 24 253 259 265 262 258 262 260 253 245
288 279 284 290 302 300 292 288 273 289 299 294 311 329 314 314 316 326 341 355 11 30 63 69 62 56 57 64 64 68 67 69 66 63 43 357 356 348 289 284 249 254 261
288 273 267 281 284 270 271 268 273 272 276 295 301 302 304 307 310 316 330 339 348 5 14 30 63 58 45 34 27 28 30 26 24 16 6 354 345 341 343 347 343 342 299
279 270 281 278 268 253 264 257 295 273 242 273 295 302 259 274 296 313 318 321 320 333 347 3 9 5 2 13 16 5 350 350 351 347 344 334 328 325 324 320 314 308 304
295 293 319 311 261 292 301 285 276 237 299 304 295 293 270 278 299 293 298 307 316 325 334 343 351 355 344 341 334 329 324 320 319 318 315 313 309 307 308 308 307 304 300
281 301 296 284 285 298 267 265 265 283 300 273 285 284 277 267 275 286 293 300 307 319 325 325 322 322 315 318 312 309 305 304 304 302 301 301 300 300 299 298 296 296 297
297 302 293 286 289 252 272 273 272 270 297 285 283 277 276 279 283 287 283 282 292 299 304 306 309 309 307 305 303 300 299 299 298 299 299 300 300 302 304 305 306 306 305
320 315 304 288 274 282 278 275 275 288 290 284 282 281 277 276 282 282 279 285 291 293 298 302 306 303 305 303 303 302 299 297 297 299 301 302 302 303 304 304 305 305 305
329 333 345 287 243 266 263 267 277 276 287 286 284 274 274 280 283 280 284 285 285 289 295 300 308 306 307 303 299 295 293 295 298 300 302 305 308 308 306 305 305 304 304
315 310 317 326 294 272 266 268 276 282 285 289 286 279 265 277 283 285 289 292 295 296 297 301 305 303 298 296 289 292 298 301 302 305 307 306 305 305 305 304 304 304 304